Regional Weather Roundup
Issued by NWS

Home | Current Version | Previous Version | Graphics & Text | Print | Product List | Glossary On
Versions: 1 2 3 4 5 6 7 8 9 10 11 12 13 14 15 16 17 18 19 20 21 22 23 24 25 26 27 28 29 30 31 32 33 34 35 36 37 38 39 40 41 42 43 44 45 46 47 48 49 50
000
ASUS43 KLSX 151557
RWRMO

WEATHER SUMMARY FOR MISSOURI
NATIONAL WEATHER SERVICE SPRINGFIELD MO
1100 AM CDT TUE AUG 15 2017

NOTE: "FAIR" INDICATES FEW OR NO CLOUDS BELOW 12,000 FEET WITH NO
       SIGNIFICANT WEATHER AND/OR OBSTRUCTIONS TO VISIBILITY.
       CURRENT SKY AND/OR WEATHER CONDITIONS ARE NOT AVAILABLE FOR
       CHILLICOTHE AND FARMINGTON.

MOZ001>031-035>038-043-044-053-054-151700-
...NORTHERN AND WESTERN MISSOURI...

CITY           SKY/WX    TMP DP  RH WIND       PRES   REMARKS
KANSAS CTY INT PTSUNNY   80  72  76 S8        29.91R
LEE`S SUMMIT   SUNNY     81  71  71 SE9       29.92S
ST JOSEPH      CLOUDY    81  75  82 S6        29.90R
CHILLICOTHE      N/A     84  73  69 VRB5      29.92R HX  90

$$
MOZ066>068-077>081-088>096-101>105-151700-
...SOUTHWEST MISSOURI...

CITY           SKY/WX    TMP DP  RH WIND       PRES   REMARKS
SPRINGFIELD    CLOUDY    76  72  87 S8        29.94S
JOPLIN         PTSUNNY   83  74  74 SE3       29.92R
BRANSON        PTSUNNY   77  72  83 S9        29.95S

$$
MOZ032>034-039>042-045>050-055>058-069>072-151700-
...CENTRAL MISSOURI...

CITY           SKY/WX    TMP DP  RH WIND       PRES   REMARKS
COLUMBIA       NOT AVBL
JEFFERSON CITY SUNNY     80  75  84 S3        29.93S
ROLLA          MOSUNNY   80  71  74 E6        29.96S
SEDALIA        MOSUNNY   81  73  76 SE5       29.94S
WARRENSBURG    MOSUNNY   79  72  78 SE6       29.92S

$$
MOZ051-052-059>065-151700-
...EAST CENTRAL MISSOURI...

CITY           SKY/WX    TMP DP  RH WIND       PRES   REMARKS
ST LOUIS INTL  PTSUNNY   83  69  62 SW5       29.94R

$$
MOZ072>076-082>087-097>100-106>115-151700-
...SOUTH CENTRAL AND SOUTHEAST MISSOURI...

CITY           SKY/WX    TMP DP  RH WIND       PRES   REMARKS
CAPE GIRARDEAU CLOUDY    76  72  87 S5        29.95S
POPLAR BLUFF   CLOUDY    76  75  97 S3        29.95S
WEST PLAINS    CLOUDY    76  70  82 S6        29.98S

$$



USA.gov is the U.S. government's official web portal to all federal, state and local government web resources and services.